Tracking 29892 objects as of 21-Nov-2024
HD Live streaming from Space Station
objects crossing your sky now

STARLINK-2352

Track STARLINK-2352 now!
10-day predictions
STARLINK-2352 is classified as:


NORAD ID: 47892
Int'l Code: 2021-021AJ
Perigee: 476.8 km
Apogee: 478.2 km
Inclination: 53.1 °
Period: 94.0 minutes
Semi major axis: 6848 km
RCS: Unknown
Launch date: March 14, 2021
Source: United States (US)
Launch site: AIR FORCE EASTERN TEST RANGE (AFETR)
Your satellite tracking list
Your tracking list is empty




NASA's NSSDC Master Catalog

Two Line Element Set (TLE):
1 47892U 21021AJ  24326.25001157  .00277689  00000-0  85934-2 0  9994
2 47892  53.0553 202.1981 0001022 103.7198   5.2706 15.31841157204866
Source of the keplerian elements: AFSPC